Regional Weather Roundup
Issued by NWS Wilmington, NC

Home | Current Version | Previous Version | Text Only | Print | Product List | Glossary On
Versions: 1 2 3 4 5 6 7 8 9 10 11 12 13 14 15 16 17 18 19 20 21 22 23 24 25 26 27
000
ASUS42 KILM 211210
RWRILM
RWRILM
REGIONAL HOURLY WEATHER ROUNDUP
NATIONAL WEATHER SERVICE WILMINGTON NC
800 AM EDT MON APR 21 2014

NOTE: "FAIR" INDICATES FEW OR NO CLOUDS BELOW 12,000 FEET WITH NO
SIGNIFICANT WEATHER AND/OR OBSTRUCTIONS TO VISIBILITY.

...............WFO WILMINGTON COUNTY WARNING AREA...............

......COASTAL NC AND SC COUNTIES......

CITY           SKY/WX    TMP DP  RH WIND       PRES   REMARKS
WILMINGTON     CLOUDY    52  45  77 N14       30.06R
SOUTHPORT      CLOUDY    51  45  79 N15       30.05R
N MYRTLE BEACH CLOUDY    52  44  74 N12G21    30.07R
MYRTLE BEACH   MOSUNNY   52  43  71 N18       30.08R

......INLAND NC AND SC COUNTIES.......

CITY           SKY/WX    TMP DP  RH WIND       PRES   REMARKS
LUMBERTON      SUNNY     50  41  71 N9        30.13R
ELIZABETHTOWN  SUNNY     49  42  76 N6        30.11S
WHITEVILLE     SUNNY     51  43  74 N3        30.10R
FLORENCE       SUNNY     52  40  63 N10       30.13R
DARLINGTON     SUNNY     48  36  61 N10       30.16R

....................REST OF NORTH CAROLINA......................

.........EASTERN NC.........

CITY           SKY/WX    TMP DP  RH WIND       PRES   REMARKS
CAPE HATTERAS  LGT RAIN  50  50 100 N12G28    30.01R FOG
JACKSONVILLE   CLOUDY    48  48 100 N8G16     30.09S
MOREHEAD CITY  CLOUDY    52  51  97 N18       30.02R FOG
KENANSVILLE    CLOUDY    49  41  74 N9G16     30.12S
NEW BERN       CLOUDY    53  47  79 N13G20    30.09R
ELIZABETH CITY CLOUDY    50  46  86 N16       30.11S

.........CENTRAL NC.........

CITY           SKY/WX    TMP DP  RH WIND       PRES   REMARKS
RALEIGH DURHAM MOSUNNY   45  34  65 NE7       30.17S
ROCKY MOUNT    CLOUDY    46  37  71 N12       30.16S
ROANOKE RAPIDS NOT AVBL
FAYETTEVILLE   SUNNY     49  38  65 N14       30.13S
HOFFMAN        SUNNY     47  37  67 N12       30.16S

.........WESTERN NC.........

CITY           SKY/WX    TMP DP  RH WIND       PRES   REMARKS
CHARLOTTE      MOSUNNY   49  38  65 N8        30.19R
GREENSBORO     MOSUNNY   46  31  55 NE7       30.18R
HICKORY        NOT AVBL
BOONE          NOT AVBL
ASHEVILLE      NOT AVBL

.....................REST OF SOUTH CAROLINA.....................

.........EASTERN SC.........

CITY           SKY/WX    TMP DP  RH WIND       PRES   REMARKS
CHARLESTON     SUNNY     57  44  62 N9        30.09R
BEAUFORT MCAS  SUNNY     58  48  69 NE9       30.10R
HILTON HEAD    NOT AVBL

.........CENTRAL SC.........

CITY           SKY/WX    TMP DP  RH WIND       PRES   REMARKS
COLUMBIA       SUNNY     53  40  61 N7        30.16R
ORANGEBURG     SUNNY     54  42  64 N8        30.14R
SUMTER SHAW    SUNNY     52  41  66 N10       30.13R

.........WESTERN SC.........

CITY           SKY/WX    TMP DP  RH WIND       PRES   REMARKS
GREENVILLE     NOT AVBL
ROCK HILL      SUNNY     49  39  68 NE9       30.19R
ANDERSON       SUNNY     51  41  68 CALM      30.19R
CLEMSON        NOT AVBL
GREENWOOD      SUNNY     49  40  71 N3        30.20R


...................COASTAL AND OFFSHORE REPORTS..................

................LOCAL PIERS AND NC RESERVE................


STATION/POSITION TIME  SKY/WX   TEMP    WIND        PRES    VSBY
                                AIR SEA DIR/SP/G
                 (UTC)          (F)     (DEG/KT/KT) (MB)    (MI)
JOHNY MRCER PIER 1200            52 58  340/ 12/ 20 1017.0R
NC RESRV MASNBRO 1100            51     360/  3     1016.0S
OCEAN CREST PIER 1200            52 59  360/ 10/ 15 1016.0S
SPRINGMAID  PIER 1200            52 60  350/ 10/ 16 1018.2R


................COASTAL AND OFFSHORE BUOYS................


STATION/POSITION TIME  SKY/WX   TEMP    WIND        PRES    VSBY
                                AIR SEA DIR/SP/G
                 (UTC)          (F)     (DEG/KT/KT) (MB)    (MI)
DIMNDSHOAL 41025 1200            58 74  360/ 27/ 35 1013.8R
WVE H/P(F/S)= 12/11 WND WVE H/P(F/S)=  8/ 8 SWL H/P/D(F/S/D)=  8/ 50/11

CAPE LOOKOUT     1100            53     360/ 24/ 30 1015.3R
ONSLOW BAY 41036 1200            56 66  360/ 27/ 31 1015.4R
WVE H/P(F/S)=  9/ 6 WND WVE H/P(F/S)=  7/ 6 SWL H/P/D(F/S/D)=  3/ 80/11

5 WRITEBCH 41038 1100            54 58  360/ 23/ 27 1016.3R
MASONBORO  41110 1200               58                N/A
WVE H/P(F/S)=  5/ 9 WND WVE H/P(F/S)=  5/ 9 SWL H/P/D(F/S/D)=  2/100/12

WILM HARBR 41108 1200               59                N/A
WVE H/P(F/S)=  5/ 4 WND WVE H/P(F/S)=  5/ 4 SWL H/P/D(F/S/D)=  2/130/11

27WRITEBCH 41037 1100            54      20/ 27/ 31 1013.4R
FRYING PAN 41013 1200            57 67   10/ 25/ 31 1015.0F
WVE H/P(F/S)=  9/ 8 WND WVE H/P(F/S)=  8/ 8 SWL H/P/D(F/S/D)=  5/ 90/10

SUNST NRSH 41024 1100            52     350/ 17/ 21 1017.4R
CAPRS NRSH 41029 NOT AVBL
EDISTO     41004 NOT AVBL


..........OFFSHORE BUOYS BEYOND 100 NM OFFSHORE...........
.....IN A TRIANGLE---HAT TO BERMUDA TO BAHAMAS TO HAT.....


STATION/POSITION TIME  SKY/WX   TEMP    WIND        PRES    VSBY
                                AIR SEA DIR/SP/G
                 (UTC)          (F)     (DEG/KT/KT) (MB)    (MI)
150E HAT   41001 NOT AVBL
W BERMUDA  41048 1112            68 70  320/  8/ 14 1010.1R
WVE H/P(F/S)=  9/ 8 WND WVE H/P(F/S)=  2/ 4 SWL H/P/D(F/S/D)= 10/190/ 8

ATLANTIC S 41049 1150            75 75  160/ 14/ 16 1018.2F
WVE H/P(F/S)=  5/ 7 WND WVE H/P(F/S)=  3/ 6 SWL H/P/D(F/S/D)=  3/100/ 7

E BAHAMAS  41046 NOT AVBL
NE BAHAMAS 41047 1058            74 74  260/ 12/ 16 1012.2R
WVE H/P(F/S)=  6/ 8 WND WVE H/P(F/S)=  3/ 6 SWL H/P/D(F/S/D)=  5/130/ 8

120E CANVRL41010 1200            72 74  340/ 17/ 19 1014.0R
WVE H/P(F/S)=  8/13 WND WVE H/P(F/S)=  5/ 6 SWL H/P/D(F/S/D)=  7/ 20/13


END



USA.gov is the U.S. government's official web portal to all federal, state and local government web resources and services.